Change the Weather History Date:

Thursday, August 22, 2013

  Actual Average (KAKO) Record (KAKO)
Temperature  
Mean Temperature 70 °F 71 °F  
Max Temperature 79 °F 85 °F 98 °F (2003)
Min Temperature 60 °F 58 °F 44 °F (1966)
Degree Days  
Heating Degree Days 0    
Month to date heating degree days  
Cooling Degree Days 4    
Month to date cooling degree days  
Growing Degree Days 20 (Base 50)    
Moisture  
Dew Point 59 °F    
Average Humidity 72    
Maximum Humidity 87    
Minimum Humidity 43    
Precipitation  
Precipitation 0.00 in 0.06 in 1.55 in (2014)
Month to date precipitation 1.76  
Year to date precipitation 12.95  
Sea Level Pressure  
Sea Level Pressure 30.18 in    
Wind  
Wind Speed 8 mph (NE)    
Max Wind Speed 17 mph    
Max Gust Speed 24 mph    
Visibility 10 miles    
Events Thunderstorm    
T = Trace of Precipitation, MM = Missing Value Source: NWS Daily Summary

Daily Weather History Graph

Daily Weather History Graph

Search for Another Location

Airport or City:

Trip Planner

Search our weather history database for the weather conditions in past years. The results will help you decide how hot, cold, wet, or windy it might be!

Date:

Astronomy

Aug. 22, 2013 Rise Set
Actual Time 6:13 AM MDT 7:41 PM MDT
Civil Twilight 5:44 AM MDT 8:10 PM MDT
Nautical Twilight 5:10 AM MDT 8:44 PM MDT
Astronomical Twilight 4:33 AM MDT 9:21 PM MDT
Moon 8:26 PM MDT (8/22) 8:05 AM MDT (8/22)
Length of Visible Light 14h 25m
Length of Day
13h 28m
Waning Gibbous, 96% of the Moon is Illuminated
Aug 22
Waning Gibbous
Aug 28
Last Quarter
Sep 5
New
Sep 12
First Quarter
Sep 19
Full

Hourly Weather History & Observations

Time (MDT) Temp. Dew Point Humidity Pressure Visibility Wind Dir Wind Speed Gust Speed Precip Events Conditions
12:15 AM 69.4 °F 57.9 °F 67% 30.15 in 10.0 mi NNE 12.7 mph - N/A   Clear
12:35 AM 68.7 °F 58.1 °F 69% 30.17 in 10.0 mi NNE 13.8 mph 19.6 mph N/A   Scattered Clouds
12:55 AM 68.2 °F 57.4 °F 68% 30.17 in 10.0 mi North 15.0 mph - N/A   Scattered Clouds
1:15 AM 68.0 °F 56.7 °F 67% 30.17 in 10.0 mi NNE 17.3 mph 24.2 mph N/A   Scattered Clouds
1:35 AM 67.3 °F 56.7 °F 69% 30.16 in 10.0 mi NNE 15.0 mph - N/A   Scattered Clouds
1:55 AM 66.6 °F 57.2 °F 72% 30.15 in 10.0 mi NNE 15.0 mph - N/A   Clear
2:15 AM 66.0 °F 57.4 °F 74% 30.16 in 10.0 mi NNE 10.4 mph - N/A   Clear
2:35 AM 65.1 °F 57.6 °F 76% 30.16 in 10.0 mi NE 5.8 mph - N/A   Clear
2:55 AM 64.4 °F 58.1 °F 80% 30.17 in 10.0 mi NNE 6.9 mph - N/A   Clear
3:15 AM 63.9 °F 57.9 °F 81% 30.18 in 10.0 mi Calm Calm - N/A   Clear
3:35 AM 62.8 °F 56.7 °F 80% 30.18 in 10.0 mi NNW 5.8 mph - N/A   Clear
3:55 AM 62.8 °F 57.0 °F 81% 30.19 in 10.0 mi NNW 4.6 mph - N/A   Clear
4:15 AM 61.9 °F 56.8 °F 84% 30.18 in 10.0 mi WNW 5.8 mph - N/A   Clear
4:35 AM 61.7 °F 57.2 °F 85% 30.18 in 10.0 mi NW 4.6 mph - N/A   Clear
4:55 AM 61.7 °F 57.2 °F 85% 30.19 in 10.0 mi NW 5.8 mph - N/A   Clear
5:15 AM 60.8 °F 56.7 °F 86% 30.19 in 10.0 mi WNW 4.6 mph - N/A   Clear
5:35 AM 60.8 °F 57.0 °F 87% 30.20 in 10.0 mi NW 6.9 mph - N/A   Clear
5:55 AM 62.6 °F 58.1 °F 85% 30.21 in 10.0 mi NNW 5.8 mph - N/A   Clear
6:15 AM 62.2 °F 57.4 °F 84% 30.22 in 10.0 mi NNW 8.1 mph - N/A   Clear
6:35 AM 62.1 °F 56.8 °F 83% 30.22 in 10.0 mi NNW 6.9 mph - N/A   Clear
6:55 AM 63.0 °F 56.8 °F 80% 30.22 in 10.0 mi NW 5.8 mph - N/A   Clear
7:15 AM 63.9 °F 57.2 °F 79% 30.23 in 10.0 mi NNW 6.9 mph - N/A   Clear
7:35 AM 67.1 °F 57.9 °F 72% 30.23 in 10.0 mi NNW 6.9 mph - N/A   Clear
7:55 AM 69.8 °F 58.3 °F 67% 30.23 in 10.0 mi NNW 6.9 mph - N/A   Clear
8:15 AM 70.5 °F 58.1 °F 65% 30.24 in 10.0 mi NNW 4.6 mph - N/A   Clear
8:35 AM 71.8 °F 58.1 °F 62% 30.24 in 10.0 mi Calm Calm - N/A   Clear
8:55 AM 73.0 °F 58.8 °F 61% 30.24 in 10.0 mi WSW 4.6 mph - N/A   Clear
9:15 AM 74.3 °F 58.8 °F 58% 30.24 in 10.0 mi Calm Calm - N/A   Clear
9:35 AM 75.2 °F 59.0 °F 57% 30.24 in 10.0 mi Calm Calm - N/A   Clear
9:55 AM 76.8 °F 58.1 °F 52% 30.24 in 10.0 mi East 4.6 mph - N/A   Clear
10:15 AM 77.9 °F 58.1 °F 50% 30.24 in 10.0 mi Calm Calm - N/A   Clear
10:35 AM 78.6 °F 57.9 °F 49% 30.24 in 10.0 mi North 8.1 mph - N/A   Clear
10:55 AM 79.3 °F 56.8 °F 46% 30.24 in 10.0 mi ENE 3.5 mph - N/A   Clear
11:15 AM - - N/A% 30.23 in 10.0 mi East 3.5 mph - N/A   Clear
11:35 AM - - N/A% 30.22 in 10.0 mi East 4.6 mph - N/A   Clear
11:55 AM - - N/A% 30.21 in 10.0 mi NE 4.6 mph - N/A   Clear
12:15 PM - - N/A% 30.20 in 10.0 mi ENE 6.9 mph - N/A   Clear
12:35 PM - - N/A% 30.20 in 10.0 mi East 5.8 mph - N/A   Clear
12:55 PM - - N/A% 30.19 in 10.0 mi East 3.5 mph - N/A   Clear
1:15 PM - - N/A% 30.19 in 10.0 mi Calm Calm - N/A   Clear
1:35 PM - - N/A% 30.18 in 10.0 mi Calm Calm - N/A   Clear
1:55 PM - - N/A% 30.17 in 10.0 mi ENE 5.8 mph - N/A   Clear
2:15 PM - - N/A% 30.17 in 10.0 mi East 4.6 mph - N/A   Clear
2:35 PM - - N/A% 30.16 in 10.0 mi East 8.1 mph - N/A   Clear
2:55 PM - - N/A% 30.16 in 10.0 mi East 4.6 mph - N/A   Clear
3:15 PM - - N/A% 30.15 in 10.0 mi ENE 5.8 mph - N/A   Clear
3:35 PM - - N/A% 30.15 in 10.0 mi ESE 8.1 mph - N/A   Clear
3:55 PM - - N/A% 30.13 in 10.0 mi ESE 10.4 mph - N/A   Clear
4:15 PM - - N/A% 30.13 in 10.0 mi ESE 10.4 mph - N/A   Clear
4:35 PM - - N/A% 30.13 in 10.0 mi East 11.5 mph - N/A   Clear
4:55 PM - - N/A% 30.12 in 10.0 mi East 11.5 mph 16.1 mph N/A   Clear
5:15 PM - - N/A% 30.12 in 10.0 mi East 11.5 mph - N/A   Clear
5:35 PM - - N/A% 30.11 in 10.0 mi East 13.8 mph - N/A   Clear
5:55 PM - - N/A% 30.12 in 10.0 mi East 9.2 mph - N/A   Clear
6:15 PM - - N/A% 30.12 in 10.0 mi East 8.1 mph - N/A   Clear
6:35 PM - - N/A% 30.12 in 10.0 mi East 8.1 mph - N/A   Clear
6:55 PM - - N/A% 30.12 in 10.0 mi East 5.8 mph - N/A   Clear
7:15 PM - - N/A% 30.13 in 10.0 mi East 6.9 mph - N/A   Clear
7:35 PM 77.9 °F 53.8 °F 43% 30.14 in 10.0 mi East 9.2 mph - N/A Thunderstorm Clear
7:55 PM 77.0 °F 57.7 °F 51% 30.15 in 10.0 mi ESE 11.5 mph - N/A   Clear
8:15 PM 76.1 °F 59.0 °F 55% 30.15 in 10.0 mi East 10.4 mph - N/A   Clear
8:35 PM 75.2 °F 59.0 °F 57% 30.17 in 10.0 mi East 9.2 mph - N/A   Scattered Clouds
8:55 PM 74.3 °F 60.1 °F 61% 30.17 in 10.0 mi ESE 9.2 mph - N/A   Mostly Cloudy
9:15 PM 71.1 °F 62.1 °F 73% 30.18 in 10.0 mi ESE 10.4 mph - N/A Thunderstorm Overcast
9:35 PM 69.8 °F 63.1 °F 79% 30.19 in 10.0 mi SE 8.1 mph - N/A   Overcast
9:55 PM 68.5 °F 64.2 °F 86% 30.19 in 10.0 mi ESE 6.9 mph - N/A   Overcast
10:15 PM 67.8 °F 63.9 °F 87% 30.21 in 10.0 mi WSW 4.6 mph - N/A   Overcast
10:35 PM 67.1 °F 62.8 °F 86% 30.21 in 10.0 mi WSW 3.5 mph - N/A   Scattered Clouds
10:55 PM 67.3 °F 62.6 °F 85% 30.21 in 10.0 mi Calm Calm - N/A   Scattered Clouds
11:15 PM 67.1 °F 62.8 °F 86% 30.22 in 10.0 mi North 5.8 mph - N/A   Scattered Clouds
11:35 PM 67.5 °F 62.8 °F 85% 30.22 in 10.0 mi Calm Calm - N/A   Mostly Cloudy
11:55 PM 68.0 °F 62.4 °F 82% 30.21 in 10.0 mi Calm Calm - N/A   Overcast